sat.trackr.live / text

‹ back to catalog

STARLINK-3871

NORAD 52496 · 2022-049AX

PAYLOAD ACTIVE UNKNOWN

§ Identity

Operator
Country
US
Launch date
2022-05-06
Launch site
AFETR
Launch vehicle
Mass (kg)
RCS (m²)

Purposes: comms

External: N2YO · Heavens-Above · Gunter

§ Orbital elements

Epoch: 2026-05-25T03:40:56.293248Z

Period
95.44 min
Inclination
53.2125°
Eccentricity
0.0001235
Mean motion
15.08836467 rev/d
Perigee alt
538.9 km
Apogee alt
540.6 km
Semi-major
6,917.9 km
B*
4.8085e-5
RAAN
60.8612°
Arg perigee
86.6642°
Mean anomaly
273.4492°
Rev number
22,400

§ Raw data

STARLINK-38711 52496U 22049AX  26145.15342932  .00000477  00000+0  48085-4 0  99962 52496  53.2125  60.8612 0001235  86.6642 273.4492 15.08836467224009

JSON: /api/v1/satellites/52496 · /tle

For live sub-satellite position, see the globe view (requires WebGL).

§ Visibility from observer

Set your observer location to see the next 7 days of passes ≥ 10°. The values pass through the URL so the page stays shareable.

No JS? Fill the form by hand. The geolocation button needs JavaScript.